Miscellaneous Local Product
Issued by NWS Hastings, NE

Home | Current Version | Previous Version | Text Only | Print | Product List | Glossary On
Versions: 1 2 3 4 5 6 7 8 9 10 11 12 13 14 15 16 17 18 19 20 21 22 23 24 25 26 27 28 29 30 31 32 33 34 35 36 37 38 39 40 41 42 43 44 45 46 47 48 49 50
000
AXUS43 KGID 271702
MISGRI

GID CWA HOURLY WEATHER ROUNDUP
NATIONAL WEATHER SERVICE HASTINGS NE
1200 PM CDT WED JUL 27 2016

NOTE: "FAIR" INDICATES FEW OR NO CLOUDS BELOW 12,000 FEET WITH NO
SIGNIFICANT WEATHER AND/OR OBSTRUCTIONS TO VISIBILITY.

...SOUTH CENTRAL NEBRASKA...

CITY           SKY/WX    TMP DP  RH WIND       PRES   REMARKS
GRAND ISLAND   SUNNY     79  63  57 NE6       30.08R
HASTINGS       SUNNY     78  64  61 N5        30.09S
KEARNEY        SUNNY     79  18  10 NE8       30.11R
ORD            SUNNY     78  63  59 N6        30.08F
YORK           MOSUNNY   79  66  65 W7        30.05S
AURORA         SUNNY     79  65  62 NE5       30.07S
LEXINGTON      CLOUDY    79  67  66 NW7       30.11R
HOLDREGE       SUNNY     78  63  59 NE9       30.10R
HEBRON         CLOUDY    79  64  60 NE8       30.06R

...NEBRASKA PANHANDLE...

CITY           SKY/WX    TMP DP  RH WIND       PRES   REMARKS
CHADRON        CLOUDY    81  56  42 W7        30.08S
ALLIANCE       MOSUNNY   76  60  57 N6        30.12F
SCOTTSBLUFF    SUNNY     75  60  59 VRB7      30.16S
SIDNEY         SUNNY     77  58  51 S8        30.17F

...WESTERN AND NORTH CENTRAL NEBRASKA...

CITY           SKY/WX    TMP DP  RH WIND       PRES   REMARKS
VALENTINE      CLOUDY    80  61  52 MISG      30.06F
AINSWORTH      MOSUNNY   78  63  59 CALM      30.09F
ONEILL         SUNNY     79  58  49 SW5       30.08S
BROKEN BOW     SUNNY     75  66  73 N7        30.12S
IMPERIAL       SUNNY     79  61  53 CALM      30.13F
NORTH PLATTE   CLOUDY    78  63  59 NW6       30.12F
MCCOOK         CLOUDY    74  62  66 N13       30.13R

...EASTERN NEBRASKA...

CITY           SKY/WX    TMP DP  RH WIND       PRES   REMARKS
NORFOLK        SUNNY     79  63  57 NW12      30.03S
SO SIOUX CITY  SUNNY     82  68  62 CALM      30.00S
TEKAMAH        MOSUNNY   80  69  69 NE13      30.00R
COLUMBUS       SUNNY     81  64  57 N10G17    30.03S
ALBION         SUNNY     76  65  68 N6        30.07R
OMAHA EPPLEY   MOSUNNY   85  67  54 SW10      29.98S
OFFUTT AFB     SUNNY     84  70  63 S13       29.98F
MILLARD        SUNNY     83  65  53 SW7       29.99R
LINCOLN        SUNNY     85  63  47 W9        30.01S
NEBRASKA CITY  MOSUNNY   80  71  76 CALM      30.02F
BEATRICE       PTSUNNY   81  68  64 NW6       30.04S
FALLS CITY     MOSUNNY   85  73  67 N7        30.02S HX  91

...NORTHERN KANSAS...

CITY           SKY/WX    TMP DP  RH WIND       PRES   REMARKS
GOODLAND       MOSUNNY   77  65  66 CALM      30.14R
HILL CITY      SUNNY     83  65  54 W3        30.07R
NORTON         SUNNY     88  55  33 W3        30.07R
SMITH CENTER     N/A     82  64  54 N5        30.06R
BELOIT         SUNNY     82  70  65 CALM      30.02S
HAYS           CLOUDY    82  64  54 S7        30.05S
RUSSELL        PTSUNNY   83  70  64 SW5       30.03R
CONCORDIA      CLOUDY    81  71  71 NE5       30.04R
SALINA         CLOUDY    87  72  60 VRB3      30.02R HX  93
TOPEKA         SUNNY     87  70  56 CALM      30.00R HX  92



USA.gov is the U.S. government's official web portal to all federal, state and local government web resources and services.